| time (UTC) | temp F | wind direction | speed MPH | gust MPH | rain 1hr in | rain 24hr in | rain mn in | humidity % | barometer mb |
| 20260505062511 | 57 | 113 | 0.0 | 0.0 | 0.00 | 0.00 | 0.00 | 75 | 1014.3 |
| 20260505062008 | 57 | 108 | 0.0 | 0.0 | 0.00 | 0.00 | 0.00 | 75 | 1014.7 |
| 20260505061506 | 57 | 118 | 0.0 | 0.0 | 0.00 | 0.00 | 0.00 | 74 | 1014.7 |
| 20260505061003 | 57 | 125 | 0.0 | 0.0 | 0.00 | 0.00 | 0.00 | 74 | 1014.4 |
| 20260505060500 | 57 | 125 | 0.0 | 0.0 | 0.00 | 0.00 | 0.00 | 74 | 1014.7 |
| 20260505055956 | 57 | 125 | 0.0 | 0.0 | 0.00 | 0.00 | 0.00 | 74 | 1014.7 |
| 20260505055452 | 57 | 125 | 0.0 | 0.0 | 0.00 | 0.00 | 0.00 | 74 | 1014.7 |
| 20260505054949 | 57 | 125 | 0.0 | 0.0 | 0.00 | 0.00 | 0.00 | 73 | 1014.8 |
| 20260505054447 | 58 | 125 | 0.0 | 0.0 | 0.00 | 0.00 | 0.00 | 73 | 1014.6 |
| 20260505053945 | 58 | 125 | 0.0 | 0.0 | 0.00 | 0.00 | 0.00 | 72 | 1014.6 |
| 20260505053441 | 58 | 125 | 0.0 | 1.0 | 0.00 | 0.00 | 0.00 | 72 | 1014.8 |
| 20260505052938 | 58 | 125 | 0.0 | 0.0 | 0.00 | 0.00 | 0.00 | 72 | 1014.8 |
| 20260505052435 | 58 | 125 | 0.0 | 0.0 | 0.00 | 0.00 | 0.00 | 71 | 1014.8 |
| 20260505051932 | 58 | 125 | 0.0 | 1.0 | 0.00 | 0.00 | 0.00 | 71 | 1014.8 |
| 20260505051429 | 58 | 126 | 0.0 | 0.0 | 0.00 | 0.00 | 0.00 | 70 | 1015.0 |
| 20260505050927 | 58 | 126 | 0.0 | 0.0 | 0.00 | 0.00 | 0.00 | 70 | 1015.0 |
| 20260505050426 | 58 | 126 | 0.0 | 0.0 | 0.00 | 0.00 | 0.00 | 69 | 1014.9 |
| 20260505041353 | 56 | 126 | 0.0 | 0.0 | 0.00 | 0.00 | 0.00 | 71 | 1014.9 |
| 20260505040850 | 56 | 126 | 0.0 | 0.0 | 0.00 | 0.00 | 0.00 | 69 | 1014.8 |
| 20260505040348 | 57 | 126 | 0.0 | 0.0 | 0.00 | 0.00 | 0.00 | 70 | 1015.1 |
| 20260505035844 | 57 | 126 | 0.0 | 0.0 | 0.00 | 0.00 | 0.00 | 70 | 1014.7 |
| 20260505035340 | 57 | 126 | 0.0 | 0.0 | 0.00 | 0.00 | 0.00 | 70 | 1014.7 |
| 20260505034838 | 57 | 126 | 0.0 | 0.0 | 0.00 | 0.00 | 0.00 | 69 | 1014.8 |
| 20260505034334 | 57 | 126 | 0.0 | 0.0 | 0.00 | 0.00 | 0.00 | 68 | 1014.8 |
| 20260505033831 | 57 | 126 | 0.0 | 0.0 | 0.00 | 0.00 | 0.00 | 71 | 1014.8 |
| 20260505033328 | 57 | 126 | 0.0 | 0.0 | 0.00 | 0.00 | 0.00 | 68 | 1014.8 |
| 20260505032826 | 57 | 126 | 0.0 | 0.0 | 0.00 | 0.00 | 0.00 | 68 | 1015.0 |
| 20260505032322 | 57 | 126 | 0.0 | 0.0 | 0.00 | 0.00 | 0.00 | 69 | 1015.0 |
| 20260505031820 | 57 | 126 | 0.0 | 0.0 | 0.00 | 0.00 | 0.00 | 70 | 1014.9 |
| 20260505031316 | 57 | 126 | 0.0 | 0.0 | 0.00 | 0.00 | 0.00 | 68 | 1015.1 |
| 20260505030813 | 58 | 126 | 0.0 | 0.0 | 0.00 | 0.00 | 0.00 | 68 | 1014.8 |
| 20260505030310 | 58 | 126 | 0.0 | 0.0 | 0.00 | 0.00 | 0.00 | 68 | 1014.8 |
| 20260505025805 | 58 | 126 | 0.0 | 0.0 | 0.00 | 0.00 | 0.00 | 69 | 1014.6 |
| 20260505025304 | 59 | 126 | 0.0 | 0.0 | 0.00 | 0.00 | 0.00 | 65 | 1014.8 |
| 20260505024801 | 59 | 126 | 0.0 | 0.0 | 0.00 | 0.00 | 0.00 | 68 | 1014.7 |
| 20260505024258 | 60 | 126 | 0.0 | 0.0 | 0.00 | 0.00 | 0.00 | 62 | 1015.0 |
| 20260505023755 | 59 | 126 | 0.0 | 0.0 | 0.00 | 0.00 | 0.00 | 62 | 1014.8 |
| 20260505023252 | 59 | 126 | 0.0 | 0.0 | 0.00 | 0.00 | 0.00 | 64 | 1015.0 |
| 20260505022749 | 59 | 126 | 0.0 | 0.0 | 0.00 | 0.00 | 0.00 | 66 | 1014.7 |
| 20260505022246 | 59 | 126 | 0.0 | 0.0 | 0.00 | 0.00 | 0.00 | 66 | 1014.7 |
| 20260505021743 | 59 | 126 | 0.0 | 0.0 | 0.00 | 0.00 | 0.00 | 64 | 1014.6 |
| 20260505021240 | 59 | 126 | 0.0 | 0.0 | 0.00 | 0.00 | 0.00 | 66 | 1014.7 |
| 20260505020736 | 59 | 126 | 0.0 | 0.0 | 0.00 | 0.00 | 0.00 | 65 | 1014.5 |
| 20260505020231 | 59 | 126 | 0.0 | 0.0 | 0.00 | 0.00 | 0.00 | 66 | 1014.6 |
| 20260505015729 | 59 | 126 | 0.0 | 0.0 | 0.00 | 0.00 | 0.00 | 66 | 1014.6 |
| 20260505015226 | 59 | 126 | 0.0 | 0.0 | 0.00 | 0.00 | 0.00 | 64 | 1014.7 |
| 20260505014723 | 59 | 126 | 0.0 | 0.0 | 0.00 | 0.00 | 0.00 | 64 | 1014.3 |
| 20260505014220 | 60 | 126 | 0.0 | 0.0 | 0.00 | 0.00 | 0.00 | 66 | 1014.5 |
| 20260505013716 | 60 | 126 | 0.0 | 0.0 | 0.00 | 0.00 | 0.00 | 60 | 1014.4 |
| 20260505013214 | 60 | 126 | 0.0 | 0.0 | 0.00 | 0.00 | 0.00 | 60 | 1014.3 |
| 20260505012712 | 61 | 126 | 0.0 | 0.0 | 0.00 | 0.00 | 0.00 | 59 | 1014.1 |
| 20260505012209 | 61 | 126 | 0.0 | 0.0 | 0.00 | 0.00 | 0.00 | 60 | 1014.3 |
| 20260505011704 | 62 | 126 | 0.0 | 0.0 | 0.00 | 0.00 | 0.00 | 61 | 1014.2 |
| 20260505011202 | 62 | 126 | 0.0 | 0.0 | 0.00 | 0.00 | 0.00 | 58 | 1014.1 |
| 20260505010657 | 63 | 126 | 0.0 | 0.0 | 0.00 | 0.00 | 0.00 | 58 | 1014.1 |
| 20260505010154 | 63 | 126 | 0.0 | 0.0 | 0.00 | 0.00 | 0.00 | 55 | 1014.2 |
| 20260505005650 | 64 | 126 | 0.0 | 0.0 | 0.00 | 0.00 | 0.00 | 54 | 1013.8 |
| 20260505005147 | 64 | 126 | 0.0 | 0.0 | 0.00 | 0.00 | 0.00 | 52 | 1013.9 |
| 20260505004644 | 65 | 126 | 0.0 | 0.0 | 0.00 | 0.00 | 0.00 | 49 | 1013.5 |
| 20260505004141 | 65 | 126 | 0.0 | 0.0 | 0.00 | 0.00 | 0.00 | 49 | 1013.7 |
| 20260505003638 | 66 | 126 | 0.0 | 0.0 | 0.00 | 0.00 | 0.00 | 48 | 1013.6 |
| 20260505003136 | 67 | 126 | 0.0 | 0.0 | 0.00 | 0.00 | 0.00 | 47 | 1013.7 |
| 20260505002631 | 67 | 126 | 0.0 | 0.0 | 0.00 | 0.00 | 0.00 | 46 | 1013.6 |
| 20260505002130 | 68 | 126 | 0.0 | 0.0 | 0.00 | 0.00 | 0.00 | 46 | 1013.5 |
| 20260505001626 | 68 | 126 | 0.0 | 0.0 | 0.00 | 0.00 | 0.00 | 45 | 1013.5 |
| 20260505001124 | 69 | 126 | 0.0 | 0.0 | 0.00 | 0.00 | 0.00 | 44 | 1013.4 |
| 20260505000621 | 69 | 126 | 0.0 | 0.0 | 0.00 | 0.00 | 0.00 | 43 | 1013.3 |
| 20260505000119 | 70 | 126 | 0.0 | 0.0 | 0.00 | 0.00 | 0.00 | 42 | 1013.5 |
| 20260504235615 | 70 | 126 | 0.0 | 0.0 | 0.00 | 0.00 | 0.00 | 41 | 1013.6 |
| 20260504235112 | 71 | 126 | 0.0 | 0.0 | 0.00 | 0.00 | 0.00 | 41 | 1013.3 |
| 20260504234609 | 71 | 126 | 0.0 | 0.0 | 0.00 | 0.00 | 0.00 | 40 | 1013.2 |
| 20260504234106 | 72 | 126 | 0.0 | 0.0 | 0.00 | 0.00 | 0.00 | 39 | 1013.2 |
| 20260504233601 | 73 | 126 | 0.0 | 0.0 | 0.00 | 0.00 | 0.00 | 39 | 1013.0 |
| 20260504233058 | 73 | 126 | 0.0 | 0.0 | 0.00 | 0.00 | 0.00 | 38 | 1013.2 |
| 20260504232555 | 74 | 126 | 0.0 | 0.0 | 0.00 | 0.00 | 0.00 | 37 | 1012.9 |
| 20260504232053 | 74 | 127 | 0.0 | 1.0 | 0.00 | 0.00 | 0.00 | 36 | 1012.8 |
| 20260504231549 | 74 | 131 | 1.0 | 1.0 | 0.00 | 0.00 | 0.00 | 36 | 1013.2 |
| 20260504231045 | 74 | 136 | 1.0 | 1.0 | 0.00 | 0.00 | 0.00 | 36 | 1013.0 |
| 20260504230541 | 75 | 124 | 0.0 | 1.0 | 0.00 | 0.00 | 0.00 | 35 | 1012.9 |
| 20260504230041 | 75 | 120 | 0.0 | 1.0 | 0.00 | 0.00 | 0.00 | 35 | 1012.7 |
| 20260504225537 | 75 | 120 | 1.0 | 1.0 | 0.00 | 0.00 | 0.00 | 36 | 1012.8 |
| 20260504225035 | 76 | 116 | 0.0 | 0.0 | 0.00 | 0.00 | 0.00 | 35 | 1012.9 |
| 20260504224531 | 76 | 136 | 1.0 | 1.0 | 0.00 | 0.00 | 0.00 | 34 | 1013.0 |
| 20260504224028 | 76 | 137 | 1.0 | 2.0 | 0.00 | 0.00 | 0.00 | 34 | 1012.9 |
| 20260504223525 | 76 | 131 | 0.0 | 2.0 | 0.00 | 0.00 | 0.00 | 33 | 1012.8 |
| 20260504223021 | 77 | 132 | 1.0 | 2.0 | 0.00 | 0.00 | 0.00 | 32 | 1012.9 |
| 20260504222518 | 77 | 121 | 0.0 | 1.0 | 0.00 | 0.00 | 0.00 | 32 | 1013.2 |
| 20260504222015 | 77 | 129 | 0.0 | 1.0 | 0.00 | 0.00 | 0.00 | 32 | 1013.0 |
| 20260504221513 | 77 | 128 | 0.0 | 1.0 | 0.00 | 0.00 | 0.00 | 31 | 1013.0 |
| 20260504221009 | 77 | 131 | 0.0 | 2.0 | 0.00 | 0.00 | 0.00 | 30 | 1012.8 |
| 20260504220506 | 77 | 140 | 1.0 | 2.0 | 0.00 | 0.00 | 0.00 | 31 | 1012.8 |
| 20260504220003 | 77 | 126 | 1.0 | 5.0 | 0.00 | 0.00 | 0.00 | 32 | 1012.9 |
| 20260504215459 | 77 | 2 | 5.0 | 6.0 | 0.00 | 0.00 | 0.00 | 31 | 1013.3 |
| 20260504214956 | 77 | 123 | 0.0 | 1.0 | 0.00 | 0.00 | 0.00 | 33 | 1012.9 |
| 20260504214452 | 78 | 121 | 2.0 | 2.0 | 0.00 | 0.00 | 0.00 | 32 | 1013.0 |
| 20260504213949 | 78 | 123 | 1.0 | 2.0 | 0.00 | 0.00 | 0.00 | 31 | 1012.7 |
| 20260504213445 | 78 | 101 | 0.0 | 1.0 | 0.00 | 0.00 | 0.00 | 31 | 1012.9 |
| 20260504212943 | 78 | 138 | 1.0 | 3.0 | 0.00 | 0.00 | 0.00 | 32 | 1013.0 |
| 20260504212438 | 78 | 131 | 0.0 | 1.0 | 0.00 | 0.00 | 0.00 | 32 | 1013.2 |
| 20260504211936 | 78 | 125 | 1.0 | 1.0 | 0.00 | 0.00 | 0.00 | 32 | 1012.9 |
| 20260504211432 | 78 | 137 | 1.0 | 3.0 | 0.00 | 0.00 | 0.00 | 34 | 1012.9 |
| 20260504210930 | 78 | 123 | 1.0 | 3.0 | 0.00 | 0.00 | 0.00 | 31 | 1012.9 |
| 20260504210427 | 78 | 125 | 0.0 | 1.0 | 0.00 | 0.00 | 0.00 | 31 | 1012.9 |
| 20260504205924 | 78 | 124 | 0.0 | 0.0 | 0.00 | 0.00 | 0.00 | 30 | 1012.9 |
| 20260504205421 | 78 | 123 | 0.0 | 1.0 | 0.00 | 0.00 | 0.00 | 31 | 1012.9 |
| 20260504204919 | 79 | 96 | 1.0 | 2.0 | 0.00 | 0.00 | 0.00 | 30 | 1013.3 |
| 20260504204418 | 79 | 108 | 2.0 | 2.0 | 0.00 | 0.00 | 0.00 | 30 | 1013.3 |
| 20260504203917 | 79 | 112 | 1.0 | 1.0 | 0.00 | 0.00 | 0.00 | 29 | 1013.4 |
| 20260504203414 | 79 | 125 | 0.0 | 1.0 | 0.00 | 0.00 | 0.00 | 31 | 1013.0 |
| 20260504202909 | 80 | 130 | 1.0 | 2.0 | 0.00 | 0.00 | 0.00 | 33 | 1013.3 |
| 20260504202406 | 79 | 24 | 3.0 | 3.0 | 0.00 | 0.00 | 0.00 | 31 | 1013.5 |
| 20260504201903 | 80 | 126 | 1.0 | 3.0 | 0.00 | 0.00 | 0.00 | 31 | 1013.5 |
| 20260504201401 | 80 | 148 | 2.0 | 2.0 | 0.00 | 0.00 | 0.00 | 29 | 1013.7 |
| 20260504200857 | 80 | 135 | 1.0 | 1.0 | 0.00 | 0.00 | 0.00 | 31 | 1013.7 |
| 20260504200354 | 80 | 130 | 2.0 | 2.0 | 0.00 | 0.00 | 0.00 | 32 | 1014.0 |
| 20260504195851 | 80 | 132 | 1.0 | 2.0 | 0.00 | 0.00 | 0.00 | 33 | 1013.8 |
| 20260504195346 | 79 | 153 | 1.0 | 2.0 | 0.00 | 0.00 | 0.00 | 34 | 1013.7 |
| 20260504194843 | 78 | 68 | 1.0 | 2.0 | 0.00 | 0.00 | 0.00 | 30 | 1013.9 |
| 20260504194339 | 79 | 276 | 3.0 | 7.0 | 0.00 | 0.00 | 0.00 | 31 | 1013.9 |
| 20260504193835 | 78 | 140 | 1.0 | 2.0 | 0.00 | 0.00 | 0.00 | 31 | 1014.0 |
| 20260504193333 | 80 | 131 | 1.0 | 2.0 | 0.00 | 0.00 | 0.00 | 34 | 1013.8 |
| 20260504192831 | 80 | 132 | 1.0 | 1.0 | 0.00 | 0.00 | 0.00 | 33 | 1014.1 |
| 20260504192329 | 81 | 133 | 0.0 | 1.0 | 0.00 | 0.00 | 0.00 | 31 | 1014.1 |
| 20260504191827 | 79 | 134 | 1.0 | 2.0 | 0.00 | 0.00 | 0.00 | 32 | 1014.3 |
| 20260504191325 | 79 | 102 | 0.0 | 2.0 | 0.00 | 0.00 | 0.00 | 33 | 1014.4 |
| 20260504190820 | 78 | 127 | 0.0 | 1.0 | 0.00 | 0.00 | 0.00 | 34 | 1014.5 |
| 20260504190316 | 79 | 121 | 0.0 | 2.0 | 0.00 | 0.00 | 0.00 | 33 | 1014.4 |
| 20260504185813 | 79 | 162 | 1.0 | 2.0 | 0.00 | 0.00 | 0.00 | 30 | 1014.6 |
| 20260504185310 | 78 | 127 | 1.0 | 2.0 | 0.00 | 0.00 | 0.00 | 36 | 1014.5 |
| 20260504184806 | 78 | 101 | 0.0 | 5.0 | 0.00 | 0.00 | 0.00 | 34 | 1014.6 |
| 20260504184302 | 78 | 137 | 1.0 | 2.0 | 0.00 | 0.00 | 0.00 | 33 | 1014.8 |
| 20260504183758 | 78 | 111 | 1.0 | 2.0 | 0.00 | 0.00 | 0.00 | 29 | 1014.9 |
| 20260504183255 | 78 | 149 | 1.0 | 1.0 | 0.00 | 0.00 | 0.00 | 28 | 1014.9 |
| 20260504182753 | 76 | 129 | 0.0 | 2.0 | 0.00 | 0.00 | 0.00 | 35 | 1014.7 |
| 20260504182250 | 76 | 104 | 1.0 | 2.0 | 0.00 | 0.00 | 0.00 | 35 | 1015.0 |
| 20260504181747 | 77 | 100 | 2.0 | 2.0 | 0.00 | 0.00 | 0.00 | 32 | 1014.8 |
| 20260504181244 | 79 | 108 | 1.0 | 3.0 | 0.00 | 0.00 | 0.00 | 29 | 1015.2 |
| 20260504180744 | 77 | 111 | 0.0 | 1.0 | 0.00 | 0.00 | 0.00 | 30 | 1015.2 |
| 20260504180242 | 76 | 100 | 1.0 | 2.0 | 0.00 | 0.00 | 0.00 | 34 | 1015.3 |
| 20260504175739 | 76 | 127 | 1.0 | 1.0 | 0.00 | 0.00 | 0.00 | 34 | 1015.3 |
| 20260504175235 | 77 | 129 | 0.0 | 1.0 | 0.00 | 0.00 | 0.00 | 33 | 1015.4 |
| 20260504174733 | 75 | 125 | 1.0 | 1.0 | 0.00 | 0.00 | 0.00 | 34 | 1015.2 |
| 20260504174231 | 75 | 110 | 1.0 | 5.0 | 0.00 | 0.00 | 0.00 | 35 | 1015.5 |
| 20260504173727 | 75 | 181 | 1.0 | 2.0 | 0.00 | 0.00 | 0.00 | 36 | 1015.2 |
| 20260504173224 | 75 | 138 | 1.0 | 1.0 | 0.00 | 0.00 | 0.00 | 36 | 1015.5 |
| 20260504172721 | 75 | 128 | 0.0 | 1.0 | 0.00 | 0.00 | 0.00 | 35 | 1015.4 |
| 20260504172217 | 76 | 133 | 1.0 | 1.0 | 0.00 | 0.00 | 0.00 | 37 | 1015.5 |
| 20260504171714 | 74 | 128 | 0.0 | 2.0 | 0.00 | 0.00 | 0.00 | 44 | 1015.4 |
| 20260504171211 | 73 | 358 | 3.0 | 3.0 | 0.00 | 0.00 | 0.00 | 39 | 1015.7 |
| 20260504170708 | 75 | 114 | 0.0 | 1.0 | 0.00 | 0.00 | 0.00 | 37 | 1015.7 |
| 20260504170206 | 75 | 118 | 0.0 | 1.0 | 0.00 | 0.00 | 0.00 | 41 | 1015.4 |
| 20260504160124 | 70 | 69 | 3.0 | 3.0 | 0.00 | 0.00 | 0.00 | 46 | 1016.6 |
| 20260504151051 | 67 | 163 | 1.0 | 2.0 | 0.00 | 0.00 | 0.00 | 58 | 1016.9 |
| 20260504150548 | 66 | 100 | 1.0 | 2.0 | 0.00 | 0.00 | 0.00 | 57 | 1017.0 |
| 20260504141014 | 62 | 107 | 0.0 | 0.0 | 0.00 | 0.00 | 0.00 | 66 | 1017.2 |
| 20260504140511 | 60 | 107 | 0.0 | 1.0 | 0.00 | 0.00 | 0.00 | 67 | 1017.0 |
| 20260504130435 | 53 | 112 | 0.0 | 0.0 | 0.00 | 0.00 | 0.00 | 81 | 1016.7 |
| 20260504110322 | 41 | 113 | 0.0 | 0.0 | 0.00 | 0.00 | 0.00 | 98 | 1016.6 |
| 20260504100240 | 42 | 113 | 0.0 | 0.0 | 0.00 | 0.00 | 0.00 | 98 | 1016.5 |
| 20260504081633 | 44 | 114 | 0.0 | 0.0 | 0.00 | 0.00 | 0.00 | 93 | 1015.7 |
| 20260504081129 | 44 | 114 | 0.0 | 0.0 | 0.00 | 0.00 | 0.00 | 94 | 1015.8 |
| 20260504080626 | 44 | 114 | 0.0 | 0.0 | 0.00 | 0.00 | 0.00 | 94 | 1016.1 |
| 20260504080122 | 45 | 114 | 0.0 | 0.0 | 0.00 | 0.00 | 0.00 | 95 | 1015.8 |